Tracking 20942 objects as of 13-Jul-2020
HD Live streaming from Space Station
objects crossing your sky now

THOR ABLESTAR DEB

Track THOR ABLESTAR DEB now!
10-day predictions


NORAD ID: 13502
Int'l Code: 1961-015KT
Perigee: 831.9 km
Apogee: 1,268.2 km
Inclination: 66.5 °
Period: 106.0 minutes
Semi major axis: 7421 km
RCS: 0.058 m2 (small)
Launch date: June 29, 1961
Source: United States (US)
Launch site: AIR FORCE EASTERN TEST RANGE (AFETR)

Note: This is SATELLITE DEBRIS
aabbcc
Your satellite tracking list
Your tracking list is empty




NASA's NSSDC Master Catalog

Two Line Element Set (TLE):
1 13502U 61015KT  20194.87202725 +.00000142 +00000-0 +22379-3 0  9996
2 13502 066.4626 273.7499 0293960 092.0348 019.4237 13.58022681855278
Source of the keplerian elements: AFSPC